Flag for U.S.A. Weather past 2 weeks in Wheaton, Illinois, U.S.A.

Now
32 °F

Passing clouds.


Feels Like: 26 °F
Forecast: 23 / 34 °F
Wind: 7 mph from Northeast

Location: Dupage Airport

Current Time: Jan 24, 2015 at 11:01:39 PM

Latest Report: Jan 24, 2015 at 9:52 PM


Visibility: 7 mi

Pressure: 29.68 "Hg

Humidity: 88%

Dew point: 29 °F

Location of WheatonLocation

Historic Weather in Wheaton — Graph

°F

Wheaton temperature yesterday

Maximum temperature yesterday: 31 °F (at 12:52 PM)
Minimum temperature yesterday: 29 °F (at 6:52 AM)
Average temperature yesterday: 30 °F

Past Weeks' High & Low Weather Summary

 TemperatureHumidityPressure
High41 °F (Jan 17, 11:52 AM)97% (Jan 20, 2:52 PM)30.74 "Hg (Jan 20, 2:52 PM)
Low-5 °F (Jan 14, 12:52 AM)51% (Jan 12, 3:52 PM)29.60 "Hg (Jan 17, 1:52 PM)
Average25 °F79%30.15 "Hg
* Reported Jan 9 8:52 PM — Jan 24 8:52 PM, Wheaton, Weather by CustomWeather, © 2014

Note: Actual official high and low records may vary slightly from our data, if they occured in-between our weather recording intervals... More about our weather records

Advertising

Wheaton weather history for previous 24 hours

 ConditionsComfort  
Time TempWeatherWind HumidityBarometerVisibility
8:52 PM
Jan 24
31 °FPassing clouds.No wind92%29.68 "Hg7 mi
7:52 PM30 °FIce fog.6 mph92%29.68 "Hg6 mi
6:52 PM31 °FPassing clouds.No wind89%29.69 "Hg8 mi
5:52 PM33 °FOvercast.No wind88%29.69 "Hg10 mi
4:52 PM34 °FPartly sunny.8 mph85%29.67 "Hg10 mi
3:52 PM34 °FFog.8 mph88%29.67 "Hg5 mi
2:52 PM36 °FLow clouds.10 mph82%29.66 "Hg7 mi
1:52 PM38 °FPartly sunny.13 mph79%29.64 "Hg10 mi
12:52 PM38 °FOvercast.10 mph76%29.68 "Hg10 mi
11:52 AM38 °FOvercast.14 mph76%29.70 "Hg10 mi
10:52 AM38 °FScattered clouds.9 mph73%29.72 "Hg10 mi
9:52 AM34 °FPartly sunny.8 mph79%29.73 "Hg8 mi
8:52 AM33 °FOvercast.10 mph82%29.74 "Hg7 mi
7:52 AM30 °FIce fog.8 mph85%29.74 "Hg6 mi
6:52 AM31 °FOvercast.7 mph85%29.75 "Hg8 mi
5:52 AM29 °FOvercast.7 mph89%29.74 "Hg7 mi
4:52 AM29 °FOvercast.5 mph85%29.73 "Hg7 mi
3:52 AM28 °FPassing clouds.5 mph85%29.75 "Hg7 mi
2:52 AM28 °FPassing clouds.6 mph85%29.76 "Hg7 mi
1:52 AM29 °FOvercast.7 mph85%29.78 "Hg8 mi
12:52 AM28 °FPassing clouds.9 mph85%29.79 "Hg8 mi
11:52 PM
Jan 23
29 °FPassing clouds.10 mph85%29.82 "Hg8 mi
Weather by CustomWeather, © 2014

See weather overviewHow to use our weather pages